[[{"header":{"parameterUnit":"m.s-1","parameterCategory":1,"la1":30.2992,"la2":30.254,"lo1":-89.0895,"lo2":-89.0443,"dy":0.0025,"dx":0.0025,"nx":19,"ny":19,"refTime":"2026-04-21T09:00:00:Z","depth":0,"parameterNumber":2,"parameterNumberName":"U-component_of_WINDS"},"data":[0,0,0,-3.4097,-3.4098,-3.4123,-3.4123,-3.4179,-3.418,0,0,0,0,0,0,0,0,0,0,0,-3.4105,-3.4106,-3.4097,-3.4098,-3.4123,-3.4123,-3.4179,-3.418,0,0,0,0,0,0,0,0,0,0,0,-3.4104,-3.4105,-3.4107,-3.4098,-3.4123,-3.4123,-3.4179,-3.4152,0,0,0,0,0,0,0,0,0,0,-3.4123,-3.4145,-3.4105,-3.4107,-3.4099,-3.4123,-3.4123,-3.415,-3.4153,-3.4179,0,-3.4205,0,-3.4194,-3.4185,-3.4186,0,0,0,-3.4087,-3.4142,-3.4135,-3.4107,-3.4099,-3.4123,-3.4109,-3.4151,-3.4155,-3.4183,-3.4206,-3.4207,-3.4195,-3.4186,-3.4186,-3.4369,-3.4371,0,0,-3.4086,-3.4117,-3.4133,-3.4139,-3.4136,-3.4108,-3.411,-3.4153,-3.418,-3.4206,-3.4208,-3.4196,-3.4186,-3.4187,-3.4368,-3.437,0,0,0,-3.4089,-3.4117,-3.4108,-3.4137,-3.414,-3.4109,-3.4111,-3.4178,-3.4172,-3.4208,-3.4196,-3.4187,-3.4188,-3.4366,-3.4369,-3.4467,0,0,0,-3.4088,-3.4119,-3.4108,-3.4128,-3.4139,-3.4159,-3.4135,-3.417,-3.4173,-3.4196,-3.4187,-3.4189,-3.4365,-3.4368,-3.446,-3.4507,0,0,0,-3.4098,-3.412,-3.4129,-3.413,-3.4141,-3.4158,-3.4154,-3.417,-3.4167,-3.4186,-3.4189,-3.4364,-3.4367,-3.4455,-3.4498,-3.4564,0,0,0,-3.4118,-3.4216,-3.4131,-3.4235,-3.4142,-3.4218,-3.4154,-3.4209,-3.4238,-3.4187,-3.4365,-3.4368,-3.4453,-3.4493,-3.4559,-3.4625,-3.4655,0,0,-3.4259,-3.4234,-3.4293,-3.4217,-3.4317,-3.4212,-3.4326,-3.4322,-3.4295,-3.4346,-3.435,-3.4462,-3.4498,-3.4563,-3.4817,-3.4842,0,0,0,-3.4348,-3.4391,-3.441,-3.4439,-3.4438,-3.4441,-3.4416,-3.4415,-3.4456,-3.4328,-3.4503,-3.4524,-3.456,-3.459,-3.4611,-3.4641,-3.4384,-3.4383,-3.4383,-3.4593,-3.4553,-3.4647,-3.4611,-3.4639,-3.4612,-3.4631,-3.4625,-3.4577,-3.4619,-3.4633,-3.4792,-3.4829,-3.4844,-3.4876,-3.4666,-3.4666,-3.4666,-3.4667,-3.4795,-3.4849,-3.4782,-3.485,-3.4807,-3.4864,-3.4842,-3.4806,-3.4852,-3.4778,-3.4809,-3.4731,-3.4873,-3.4898,-3.4674,-3.4672,-3.4671,-3.4671,-3.467,-3.495,-3.4968,-3.4965,-3.5001,-3.5034,-3.4993,-3.5041,-3.5,-3.4963,-3.4993,-3.5003,-3.5002,-3.4994,-3.5001,-3.5002,-3.5002,-3.5003,-3.5003,-3.5003,-3.5112,-3.5104,-3.5149,-3.5157,-3.5169,-3.518,-3.5155,-3.5166,-3.5168,-3.5135,-3.5135,-3.5083,-3.4894,-3.4847,-3.5012,-3.501,-3.5009,-3.5008,-3.5008,-3.533,-3.5274,-3.5344,-3.5356,-3.5361,-3.5396,-3.5344,-3.537,-3.5374,-3.5398,-3.534,-3.5207,-3.5178,-3.5162,-3.5122,-3.5348,-3.5348,-3.5348,-3.5348,-3.5461,-3.5442,-3.5503,-3.5526,-3.5544,-3.5503,-3.5583,-3.5564,-3.5536,-3.5536,-3.5497,-3.5442,-3.5427,-3.5407,-3.5385,-3.5348,-3.5626,-3.5626,-3.5626,-3.5592,-3.5574,-3.5649,-3.562,-3.5621,-3.5623,-3.5696,-3.5725,-3.5681,-3.5637,-3.5534,-3.5523,-3.5433,-3.5406,-3.5359,-3.5325,-3.5256,0,0]},{"header":{"parameterUnit":"m.s-1","parameterCategory":1,"la1":30.2992,"la2":30.254,"lo1":-89.0895,"lo2":-89.0443,"dy":0.0025,"dx":0.0025,"nx":19,"ny":19,"refTime":"2026-04-21T09:00:00:Z","depth":0,"parameterNumber":3,"parameterNumberName":"V-component_of_WINDS"},"data":[0,0,0,2.3302,2.3302,2.3302,2.3301,2.3316,2.3316,0,0,0,0,0,0,0,0,0,0,0,2.331,2.331,2.3302,2.3302,2.3302,2.3301,2.3316,2.3316,0,0,0,0,0,0,0,0,0,0,0,2.331,2.331,2.3311,2.3302,2.3302,2.3301,2.3316,2.3311,0,0,0,0,0,0,0,0,0,0,2.3309,2.3324,2.331,2.3311,2.3302,2.3302,2.3301,2.331,2.3311,2.3322,0,2.3333,0,2.3325,2.3318,2.3318,0,0,0,2.3296,2.3324,2.3316,2.3311,2.3302,2.3302,2.33,2.3311,2.3312,2.3323,2.3333,2.3333,2.3325,2.3318,2.3318,2.34,2.34,0,0,2.3296,2.3314,2.3316,2.3317,2.3317,2.33,2.33,2.3311,2.3323,2.3333,2.3334,2.3325,2.3318,2.3318,2.3399,2.34,0,0,0,2.33,2.3315,2.3307,2.3317,2.3316,2.33,2.33,2.3323,2.3319,2.3334,2.3326,2.3318,2.3319,2.3398,2.3399,2.3449,0,0,0,2.33,2.3317,2.3307,2.3318,2.3316,2.3319,2.3312,2.3318,2.3319,2.3326,2.3318,2.3319,2.3397,2.3399,2.3446,2.347,0,0,0,2.3307,2.3318,2.3321,2.3319,2.332,2.3319,2.3315,2.3318,2.3314,2.3318,2.3319,2.3397,2.3399,2.3444,2.3465,2.3496,0,0,0,2.3321,2.3365,2.3322,2.3369,2.332,2.335,2.3314,2.3336,2.3345,2.3319,2.3398,2.3399,2.3443,2.3463,2.3494,2.3525,2.354,0,0,2.3387,2.3374,2.34,2.3361,2.3403,2.3348,2.3398,2.3389,2.3373,2.3392,2.3394,2.3447,2.3465,2.3496,2.3619,2.3632,0,0,0,2.3427,2.3446,2.3453,2.3463,2.3457,2.3455,2.3436,2.3433,2.3448,2.3386,2.3467,2.3477,2.3494,2.3508,2.3518,2.3532,2.3407,2.3407,2.3406,2.3547,2.3524,2.3566,2.3543,2.3553,2.3534,2.354,2.3533,2.3507,2.3527,2.3532,2.3609,2.3627,2.3634,2.3649,2.3547,2.3547,2.3547,2.3548,2.3642,2.3665,2.363,2.3658,2.3634,2.3657,2.3641,2.3622,2.3641,2.3604,2.3618,2.3578,2.3648,2.366,2.3551,2.3551,2.355,2.355,2.355,2.3718,2.3724,2.372,2.3732,2.3744,2.372,2.374,2.3717,2.3696,2.371,2.3713,2.3712,2.3708,2.3713,2.3714,2.3714,2.3714,2.3714,2.3714,2.3797,2.379,2.3809,2.3808,2.3811,2.3813,2.3796,2.3799,2.3797,2.3779,2.3779,2.3751,2.366,2.3637,2.3718,2.3718,2.3717,2.3717,2.3717,2.39,2.3874,2.3903,2.3907,2.3903,2.3917,2.3888,2.3897,2.3896,2.3907,2.3877,2.3813,2.3798,2.3789,2.377,2.3881,2.3881,2.3881,2.3881,2.3964,2.3954,2.3979,2.3986,2.3991,2.3968,2.4003,2.3991,2.3973,2.3972,2.3953,2.3926,2.3919,2.3908,2.3897,2.3878,2.4015,2.4015,2.4015,2.4026,2.4016,2.4049,2.4031,2.4028,2.4025,2.4057,2.4068,2.4043,2.402,2.397,2.3965,2.3921,2.3908,2.3883,2.3866,2.3832,0,0]}]]